Powrót do katalogu

COSMOS 832

AktywnyMilitariaLEO
NORAD 8896·PAYLOAD·🇷🇺 Russia

Wystrzelony Jun 15, 1976 z Plesetsk Cosmodrome

Loading…

Następne Przeloty (najbliższe 24 godziny)

TLE

ŚwieżeSource: Space-Track

Epoka: Sep 14, 2026, 14:21 UTC

1 08896U 76054H   26257.59840466 -.00000010  00000-0  44000-4 0  9991
2 08896  74.0008 198.5915 0024082 160.5854 309.4326 12.41323381276993

Śledź COSMOS 832 w czasie rzeczywistym z AllMySat

Download on the App Store